Precipitable_Water
0.26 0.20 0.15 0.17 0.19 0.18 0.16 0.15 0.14 0.18 0.23 0.22 0.20 0.19 0.19 0.21 0.21 0.18 0.18 0.19 0.20 0.20 0.26 0.31 0.34 0.35 0.35 0.35 0.36 0.37 0.38 0.38 0.38 0.38 0.36 0.35 0.33 0.34 0.34 0.34 0.33 0.32 0.31 0.30
0.22 0.17 0.20 0.23 0.22 0.20 0.19 0.17 0.16 0.20 0.23 0.22 0.21 0.18 0.20 0.21 0.19 0.19 0.18 0.18 0.19 0.20 0.24 0.29 0.33 0.35 0.34 0.34 0.34 0.36 0.37 0.38 0.38 0.38 0.37 0.36 0.35 0.35 0.35 0.35 0.34 0.32 0.31 0.30
0.19 0.19 0.24 0.23 0.21 0.18 0.18 0.17 0.18 0.19 0.23 0.24 0.21 0.16 0.17 0.18 0.19 0.19 0.18 0.17 0.19 0.22 0.24 0.30 0.33 0.35 0.34 0.34 0.36 0.36 0.37 0.38 0.39 0.39 0.38 0.37 0.36 0.36 0.35 0.34 0.33 0.32 0.30 0.29
0.22 0.25 0.22 0.22 0.19 0.21 0.17 0.24 0.23 0.22 0.20 0.15 0.21 0.10 0.16 0.17 0.16 0.17 0.15 0.18 0.23 0.26 0.28 0.33 0.36 0.36 0.34 0.35 0.37 0.37 0.38 0.39 0.40 0.40 0.38 0.36 0.34 0.33 0.34 0.33 0.32 0.31 0.30 0.28
0.20 0.23 0.24 0.22 0.22 0.25 0.22 0.25 0.24 0.23 0.21 0.20 0.19 0.15 0.15 0.18 0.14 0.14 0.16 0.21 0.25 0.28 0.31 0.34 0.35 0.37 0.35 0.34 0.35 0.36 0.36 0.37 0.40 0.40 0.38 0.36 0.34 0.34 0.34 0.33 0.32 0.31 0.29 0.27
0.26 0.31 0.29 0.27 0.28 0.28 0.28 0.26 0.25 0.24 0.21 0.14 0.17 0.16 0.13 0.13 0.14 0.16 0.20 0.23 0.26 0.30 0.33 0.33 0.34 0.37 0.35 0.33 0.35 0.36 0.36 0.37 0.39 0.40 0.40 0.37 0.34 0.33 0.32 0.32 0.30 0.28 0.26 0.25
0.25 0.26 0.30 0.30 0.25 0.29 0.27 0.24 0.17 0.15 0.14 0.11 0.16 0.12 0.12 0.16 0.18 0.20 0.23 0.24 0.28 0.30 0.31 0.31 0.32 0.35 0.35 0.34 0.35 0.37 0.39 0.39 0.40 0.40 0.39 0.37 0.34 0.33 0.32 0.30 0.28 0.25 0.24 0.23
0.17 0.16 0.24 0.29 0.26 0.24 0.24 0.23 0.16 0.10 0.10 0.11 0.16 0.11 0.13 0.20 0.23 0.27 0.27 0.27 0.28 0.29 0.30 0.30 0.33 0.35 0.35 0.35 0.36 0.38 0.40 0.39 0.41 0.41 0.39 0.37 0.35 0.32 0.30 0.28 0.26 0.24 0.23 0.23
0.16 0.16 0.24 0.26 0.27 0.27 0.23 0.20 0.25 0.19 0.18 0.14 0.16 0.18 0.23 0.26 0.25 0.25 0.26 0.27 0.28 0.30 0.31 0.30 0.32 0.34 0.36 0.35 0.36 0.39 0.40 0.41 0.42 0.41 0.38 0.35 0.33 0.31 0.28 0.26 0.25 0.24 0.24 0.23
0.30 0.23 0.29 0.31 0.33 0.33 0.30 0.32 0.25 0.27 0.19 0.18 0.15 0.17 0.17 0.20 0.21 0.25 0.25 0.26 0.29 0.32 0.32 0.31 0.32 0.36 0.36 0.37 0.38 0.39 0.41 0.42 0.42 0.41 0.38 0.34 0.32 0.30 0.28 0.26 0.25 0.24 0.24 0.23
0.35 0.34 0.31 0.33 0.30 0.29 0.30 0.29 0.29 0.27 0.24 0.18 0.15 0.13 0.18 0.18 0.21 0.24 0.26 0.28 0.30 0.31 0.32 0.32 0.34 0.35 0.36 0.38 0.39 0.40 0.41 0.43 0.43 0.41 0.38 0.34 0.31 0.29 0.28 0.26 0.25 0.25 0.23 0.23
0.30 0.28 0.22 0.23 0.28 0.31 0.29 0.24 0.24 0.19 0.19 0.21 0.21 0.13 0.21 0.23 0.25 0.28 0.29 0.30 0.31 0.32 0.34 0.35 0.36 0.36 0.37 0.39 0.40 0.42 0.43 0.43 0.43 0.41 0.37 0.34 0.31 0.30 0.28 0.27 0.26 0.24 0.23 0.23
0.34 0.31 0.25 0.26 0.30 0.32 0.30 0.29 0.28 0.28 0.29 0.22 0.24 0.16 0.27 0.27 0.29 0.32 0.30 0.30 0.31 0.32 0.34 0.35 0.36 0.36 0.38 0.40 0.41 0.43 0.44 0.44 0.43 0.40 0.37 0.34 0.32 0.30 0.28 0.27 0.25 0.25 0.24 0.20
0.41 0.35 0.30 0.26 0.27 0.29 0.29 0.31 0.32 0.32 0.26 0.25 0.25 0.25 0.24 0.28 0.30 0.33 0.32 0.33 0.32 0.35 0.36 0.37 0.38 0.39 0.41 0.42 0.43 0.44 0.45 0.44 0.42 0.40 0.37 0.34 0.32 0.31 0.29 0.28 0.27 0.26 0.22 0.18
0.51 0.40 0.42 0.39 0.37 0.37 0.37 0.35 0.34 0.29 0.29 0.27 0.25 0.26 0.26 0.28 0.30 0.32 0.32 0.33 0.35 0.35 0.37 0.38 0.38 0.40 0.42 0.43 0.44 0.46 0.45 0.43 0.41 0.39 0.36 0.34 0.33 0.32 0.30 0.28 0.26 0.23 0.19 0.17
0.51 0.41 0.46 0.41 0.42 0.43 0.42 0.42 0.37 0.35 0.31 0.33 0.32 0.30 0.32 0.34 0.34 0.34 0.34 0.37 0.36 0.36 0.38 0.39 0.41 0.42 0.44 0.45 0.46 0.46 0.44 0.42 0.41 0.39 0.36 0.35 0.33 0.31 0.29 0.26 0.24 0.20 0.18 0.17
0.48 0.43 0.40 0.34 0.41 0.42 0.34 0.33 0.36 0.32 0.34 0.32 0.28 0.31 0.36 0.34 0.35 0.35 0.33 0.36 0.37 0.38 0.41 0.43 0.43 0.44 0.45 0.46 0.46 0.45 0.44 0.43 0.40 0.38 0.37 0.35 0.33 0.30 0.28 0.25 0.22 0.19 0.17 0.17
0.46 0.44 0.43 0.34 0.38 0.25 0.32 0.40 0.37 0.32 0.32 0.33 0.34 0.33 0.32 0.31 0.33 0.35 0.35 0.39 0.40 0.42 0.43 0.44 0.46 0.47 0.47 0.47 0.47 0.47 0.46 0.43 0.41 0.39 0.37 0.34 0.31 0.28 0.26 0.24 0.20 0.18 0.16 0.15
0.52 0.46 0.37 0.31 0.30 0.33 0.35 0.31 0.31 0.29 0.29 0.36 0.31 0.32 0.29 0.31 0.39 0.31 0.38 0.43 0.43 0.45 0.47 0.49 0.50 0.49 0.49 0.48 0.48 0.47 0.45 0.43 0.40 0.37 0.35 0.32 0.30 0.27 0.24 0.20 0.18 0.16 0.16 0.14
0.47 0.48 0.40 0.34 0.26 0.23 0.30 0.33 0.36 0.39 0.32 0.30 0.32 0.34 0.30 0.31 0.29 0.31 0.41 0.45 0.46 0.51 0.52 0.49 0.50 0.50 0.49 0.49 0.48 0.46 0.43 0.40 0.38 0.35 0.33 0.31 0.29 0.25 0.21 0.19 0.16 0.15 0.14 0.13
0.34 0.37 0.32 0.31 0.29 0.33 0.37 0.34 0.35 0.26 0.21 0.25 0.29 0.31 0.29 0.29 0.35 0.43 0.46 0.49 0.49 0.49 0.52 0.53 0.50 0.49 0.49 0.50 0.47 0.44 0.41 0.39 0.37 0.34 0.31 0.29 0.27 0.21 0.19 0.16 0.15 0.13 0.12 0.11
0.30 0.30 0.31 0.32 0.28 0.25 0.38 0.38 0.29 0.23 0.25 0.29 0.31 0.31 0.30 0.34 0.39 0.43 0.50 0.57 0.54 0.53 0.54 0.52 0.54 0.50 0.49 0.49 0.45 0.43 0.40 0.38 0.36 0.32 0.30 0.27 0.22 0.20 0.18 0.15 0.13 0.12 0.11 0.10
0.32 0.31 0.27 0.30 0.27 0.35 0.36 0.33 0.33 0.34 0.33 0.35 0.36 0.37 0.37 0.38 0.38 0.40 0.41 0.46 0.53 0.53 0.54 0.55 0.53 0.52 0.53 0.47 0.44 0.41 0.37 0.35 0.33 0.31 0.28 0.23 0.22 0.18 0.16 0.14 0.11 0.11 0.10 0.09
0.37 0.40 0.34 0.34 0.36 0.37 0.39 0.41 0.42 0.42 0.42 0.42 0.41 0.42 0.41 0.39 0.42 0.40 0.38 0.41 0.41 0.47 0.49 0.52 0.51 0.52 0.52 0.44 0.42 0.39 0.36 0.34 0.30 0.27 0.24 0.23 0.20 0.17 0.14 0.12 0.11 0.10 0.09 0.09
0.35 0.39 0.38 0.37 0.43 0.48 0.47 0.49 0.49 0.49 0.50 0.49 0.49 0.47 0.44 0.42 0.42 0.39 0.39 0.39 0.40 0.42 0.46 0.49 0.52 0.50 0.47 0.43 0.41 0.38 0.36 0.32 0.29 0.25 0.24 0.20 0.18 0.15 0.12 0.10 0.09 0.09 0.09 0.10
0.30 0.30 0.29 0.26 0.34 0.39 0.43 0.49 0.52 0.50 0.50 0.50 0.48 0.43 0.43 0.44 0.41 0.43 0.44 0.41 0.43 0.44 0.43 0.46 0.51 0.50 0.44 0.41 0.39 0.39 0.34 0.32 0.27 0.26 0.22 0.19 0.15 0.12 0.10 0.09 0.08 0.09 0.10 0.10
Wind_Speed
24 25 28 28 29 29 27 26 29 27 24 27 33 35 34 32 31 32 33 31 30 31 31 29 28 27 27 27 28 28 29 30 30 30 30 30 31 31 32 32 33 34 35 37
25 31 31 27 27 28 27 28 31 29 26 29 34 38 37 35 33 31 31 32 31 29 28 27 27 27 28 28 28 29 30 31 32 32 32 32 32 32 32 33 34 35 37 38
31 28 23 26 26 25 26 29 30 30 29 31 34 36 30 28 30 31 30 30 29 27 26 26 26 27 28 29 29 30 31 32 32 33 32 33 33 33 34 34 35 36 37 38
30 27 29 27 26 25 28 26 30 30 29 32 27 38 32 33 31 27 29 26 26 25 25 25 26 28 28 29 29 31 32 33 33 33 34 34 34 34 34 35 36 37 38 39
25 22 21 23 24 22 26 24 25 27 29 31 32 33 32 27 27 28 26 28 23 23 23 25 26 28 28 27 29 31 32 32 32 33 34 34 34 35 35 36 37 37 38 39
26 23 22 22 21 23 22 24 26 27 28 32 35 32 28 23 26 26 29 27 23 21 23 24 26 27 28 28 29 31 32 33 34 33 33 34 34 34 35 36 36 37 38 40
25 28 26 25 23 25 26 24 26 27 26 35 26 31 37 37 34 31 31 29 24 23 22 25 26 27 28 29 29 31 32 33 33 34 34 35 34 34 35 35 36 38 40 41
26 29 26 27 30 27 27 27 25 32 33 43 28 34 35 32 32 33 31 27 23 21 24 26 27 28 29 31 31 33 33 34 34 34 34 34 34 34 34 35 36 39 40 42
28 32 27 29 28 28 26 28 28 30 29 35 36 40 34 34 33 28 25 24 25 26 26 27 28 31 30 34 35 34 34 35 35 34 34 34 34 34 34 35 38 39 41 43
30 32 29 28 29 30 30 27 25 26 29 37 45 47 42 33 28 23 25 26 28 28 29 30 32 33 35 37 38 36 35 35 35 34 34 34 34 34 35 36 38 40 42 45
31 32 31 30 34 35 30 31 30 29 29 33 40 35 24 23 28 26 27 30 30 31 32 34 35 36 39 41 40 38 36 36 35 35 34 34 35 35 36 37 39 41 43 46
33 30 35 40 34 35 34 35 35 32 31 35 36 50 26 26 30 34 30 31 33 35 38 36 38 40 43 43 41 39 37 37 36 35 35 35 35 35 36 38 40 42 44 46
33 32 33 37 35 34 34 33 36 38 40 51 34 52 34 40 40 37 41 42 41 43 42 42 43 45 45 44 42 40 38 37 36 35 35 35 35 36 37 39 40 42 45 47
36 36 40 43 40 26 27 31 35 39 41 44 46 54 57 52 49 46 46 45 46 46 45 46 47 47 46 45 42 40 38 37 36 35 35 35 35 36 37 39 42 44 46 47
35 39 40 46 48 46 47 45 45 49 51 49 56 52 56 56 53 51 51 50 53 52 48 47 47 46 45 43 41 39 38 37 36 36 35 35 35 36 38 40 41 43 45 47
38 47 47 53 55 54 51 45 53 54 59 57 56 58 58 58 59 57 58 52 51 50 51 49 46 44 42 41 39 37 36 35 35 35 35 34 35 37 38 40 41 43 45 47
39 39 39 45 46 43 41 54 49 57 54 53 55 57 55 54 53 51 56 52 50 51 50 47 44 42 40 39 37 35 34 34 34 34 34 35 35 36 37 39 41 42 44 46
43 42 41 40 37 40 47 44 49 55 53 51 50 51 50 52 51 50 52 49 51 50 49 45 42 40 36 34 33 33 32 33 33 34 34 34 35 35 36 38 39 41 43 45
52 47 41 39 43 43 35 43 43 46 50 44 49 50 51 53 46 53 47 43 44 44 44 41 38 34 32 32 31 31 32 32 32 33 33 33 33 34 35 36 38 40 42 45
53 53 48 39 39 43 46 51 50 44 42 53 50 50 50 47 43 48 44 37 39 36 35 34 33 32 31 31 31 31 31 31 32 32 31 31 32 33 34 35 36 38 41 44
42 45 50 52 52 49 48 47 40 41 53 53 51 49 46 42 41 42 40 39 36 35 33 32 32 32 32 32 31 30 30 31 31 30 30 30 31 31 32 33 35 37 40 43
51 44 44 48 50 53 53 50 51 59 59 54 49 44 41 39 38 37 35 35 36 36 35 34 33 34 33 33 31 31 31 30 30 30 30 29 29 30 30 32 34 36 39 42
54 58 57 55 55 56 52 58 62 61 59 55 50 46 42 41 41 39 38 39 40 38 37 37 34 33 35 36 34 32 31 30 30 29 28 28 28 28 29 30 32 35 38 41
49 52 55 56 58 56 53 53 54 53 53 52 49 46 43 45 45 45 45 44 45 44 42 39 38 37 36 35 34 32 30 28 28 28 27 27 27 27 27 28 30 33 36 40
39 36 39 42 45 49 53 48 45 45 45 48 52 50 52 53 52 53 51 48 47 45 43 41 39 39 37 35 33 32 32 29 28 27 27 26 25 25 24 26 28 32 35 39
64 62 58 60 58 55 55 54 51 50 52 54 56 59 58 57 60 56 53 49 47 45 44 43 42 39 37 37 34 33 32 29 27 26 25 24 23 23 23 24 27 30 34 37
Wind_Direction
271 268 267 270 267 276 277 276 276 279 281 281 280 280 285 289 288 288 289 284 280 278 276 270 265 266 265 266 267 266 266 265 266 268 270 274 276 278 282 284 286 288 292 295
270 266 271 273 273 270 270 272 275 283 282 280 285 283 285 285 285 288 289 287 284 280 274 269 266 264 265 266 268 268 268 267 267 268 271 274 275 278 281 284 286 288 291 294
265 273 275 268 268 264 264 266 276 281 288 282 288 284 283 288 286 290 288 286 284 276 273 268 265 265 268 267 268 269 269 269 268 268 271 273 275 278 281 283 286 289 292 294
270 273 267 264 264 258 266 273 276 282 287 285 290 290 285 289 288 290 293 290 284 275 271 267 267 267 270 271 272 272 271 270 268 268 270 271 274 277 281 284 287 290 292 294
269 269 262 258 264 257 272 279 279 281 281 288 282 285 291 293 291 289 294 296 284 277 270 266 269 269 272 274 277 274 272 270 269 268 270 271 273 277 281 284 288 291 292 294
266 268 263 266 270 267 269 280 281 282 282 279 282 275 289 289 290 292 298 296 288 280 275 272 274 271 272 280 282 277 274 271 268 269 270 271 273 276 281 285 288 291 294 296
266 261 261 264 266 268 268 275 282 278 278 280 288 282 282 290 286 288 292 293 290 279 276 277 274 272 272 282 286 280 275 271 268 268 270 271 273 276 281 285 289 293 295 297
265 266 255 258 260 267 261 267 266 279 284 287 284 278 289 286 285 290 296 292 284 278 282 280 274 276 274 282 287 283 276 271 268 269 270 271 273 277 281 285 289 293 295 297
260 265 266 266 266 262 263 264 275 276 279 284 281 279 284 284 286 294 292 290 284 281 285 279 274 279 278 285 288 284 277 272 269 268 269 271 273 276 280 285 291 293 296 298
265 268 265 265 264 263 264 269 269 268 276 277 282 288 287 283 282 289 294 288 288 287 285 280 276 279 281 287 289 284 277 271 268 268 269 270 272 276 281 285 292 294 297 299
260 258 263 261 257 257 263 263 264 271 268 274 281 280 281 284 296 292 293 291 290 288 288 284 279 281 283 287 287 281 276 271 268 267 268 270 273 277 281 286 291 294 297 300
257 261 260 261 267 268 264 262 257 261 266 267 271 276 283 288 287 293 293 294 291 288 291 286 282 282 284 287 284 279 275 269 267 266 267 269 273 277 281 287 291 295 298 300
257 259 263 265 265 266 262 261 261 263 267 263 261 272 276 285 286 287 287 289 288 287 287 284 283 283 284 283 280 277 273 267 265 265 267 269 272 277 283 287 291 296 299 301
254 256 255 258 262 265 260 261 260 258 262 269 263 272 281 282 284 286 286 287 287 287 284 283 283 283 282 280 276 274 270 265 263 264 266 268 272 278 283 288 292 296 299 302
255 257 258 259 263 264 267 267 264 261 264 266 273 274 278 284 286 285 286 288 289 287 285 284 285 283 281 278 275 273 268 263 262 262 265 268 273 279 285 290 294 297 300 303
257 258 257 261 264 266 265 262 264 267 270 270 272 276 280 282 284 286 286 286 285 285 285 285 283 282 280 276 273 270 266 262 261 262 265 269 275 281 286 291 294 298 301 304
258 259 258 260 260 263 261 259 263 267 269 271 274 276 281 282 283 283 285 287 287 286 285 283 280 278 277 272 269 266 263 261 261 262 265 270 276 281 286 290 295 298 302 306
257 258 259 266 266 257 261 263 264 266 269 272 273 277 281 283 285 288 288 286 286 285 284 282 279 277 272 269 267 265 261 260 260 262 266 270 276 281 286 291 295 300 304 307
252 256 261 261 259 266 267 265 263 267 268 267 272 279 282 283 290 287 292 286 284 286 286 283 277 273 269 267 265 262 260 259 259 263 266 271 275 281 287 292 297 301 305 308
252 252 254 260 261 261 264 265 267 269 268 273 276 275 281 286 286 288 292 289 288 290 288 283 274 269 266 267 265 261 258 258 260 262 266 270 275 281 288 293 298 302 306 309
257 255 252 257 260 264 265 269 270 258 272 277 275 274 278 278 278 283 287 286 286 288 287 281 274 269 265 263 261 260 259 259 259 262 265 270 276 282 288 294 299 303 308 311
254 256 256 259 261 262 267 264 257 270 275 274 275 275 276 277 277 282 286 285 285 283 282 279 274 268 262 258 258 260 259 259 259 261 266 271 276 281 286 292 300 305 309 314
254 255 260 257 264 268 265 262 266 268 270 272 272 277 274 273 274 280 285 279 278 280 279 276 270 266 262 257 258 257 258 258 259 262 264 269 274 279 286 292 300 306 312 316
260 262 261 264 266 265 265 267 267 267 266 269 270 275 275 275 278 280 283 281 278 276 277 277 267 265 263 257 256 255 253 256 257 259 260 266 272 279 286 294 301 308 314 318
264 272 272 272 270 272 271 269 269 269 267 269 273 274 274 277 277 281 282 279 276 273 274 273 268 264 259 254 253 251 249 252 254 256 260 265 271 277 286 295 303 310 316 319
262 266 267 268 268 269 272 272 271 271 268 270 274 276 275 277 279 279 277 277 274 272 270 269 266 262 256 252 249 248 245 248 252 256 258 262 268 276 284 295 304 312 317 323